CW8095 Weather Reports


time (UTC)temp
C
wind
direction
speed
KPH
gust
KPH
rain 1hr
cm
rain 24hr
cm
rain mn
cm
humidity
%
barometer
mb
20260503024025 19 164 1.6 4.8 0.00 0.00 0.00 48 1019.8
20260503023021 19 167 1.6 4.8 0.00 0.00 0.00 46 1019.7
20260503022016 20 170 1.6 3.2 0.00 0.00 0.00 45 1019.6
20260503021026 20 170 0.0 1.6 0.00 0.00 0.00 44 1019.5
20260503020021 20 170 0.0 1.6 0.00 0.00 0.00 42 1019.4
20260503015016 21 175 0.0 3.2 0.00 0.00 0.00 41 1019.4
20260503014027 21 191 0.0 1.6 0.00 0.00 0.00 39 1019.3
20260503013042 22 194 0.0 3.2 0.00 0.00 0.00 37 1019.3
20260503012017 22 168 1.6 4.8 0.00 0.00 0.00 35 1019.2
20260503011027 22 155 1.6 4.8 0.00 0.00 0.00 34 1019.1
20260503010023 23 160 1.6 4.8 0.00 0.00 0.00 32 1019.1
20260503005038 24 144 0.0 3.2 0.00 0.00 0.00 31 1019.0
20260503004028 25 164 1.6 4.8 0.00 0.00 0.00 30 1019.0
20260503003024 25 159 3.2 6.4 0.00 0.00 0.00 29 1019.1
20260503002019 26 110 1.6 4.8 0.00 0.00 0.00 26 1019.0
20260503001050 27 79 1.6 4.8 0.00 0.00 0.00 24 1019.0
20260503000025 28 98 0.0 3.2 0.00 0.00 0.00 24 1019.1
20260502235020 28 230 1.6 4.8 0.00 0.00 0.00 24 1019.1
20260502234035 28 189 1.6 3.2 0.00 0.00 0.00 24 1019.0
20260502233025 28 305 1.6 4.8 0.00 0.00 0.00 23 1019.1
20260502232020 28 246 1.6 4.8 0.00 0.00 0.00 24 1019.2
20260502231015 28 193 1.6 4.8 0.00 0.00 0.00 23 1019.1
20260502230025 28 167 1.6 4.8 0.00 0.00 0.00 24 1019.2
20260502225100 29 127 3.2 9.7 0.00 0.00 0.00 23 1019.2
20260502224016 29 148 3.2 6.4 0.00 0.00 0.00 23 1019.2
20260502223026 29 125 4.8 9.7 0.00 0.00 0.00 23 1019.3
20260502222021 28 70 4.8 9.7 0.00 0.00 0.00 25 1019.4
20260502221016 28 133 0.0 3.2 0.00 0.00 0.00 25 1019.5
20260502220026 28 90 1.6 4.8 0.00 0.00 0.00 25 1019.5
20260502215020 29 107 4.8 9.7 0.00 0.00 0.00 23 1019.5
20260502214030 29 50 3.2 11.3 0.00 0.00 0.00 23 1019.7
20260502213025 30 94 3.2 9.7 0.00 0.00 0.00 23 1019.8
20260502212020 29 337 3.2 9.7 0.00 0.00 0.00 25 1019.9
20260502211036 28 93 3.2 6.4 0.00 0.00 0.00 23 1020.1
20260502210025 29 90 3.2 11.3 0.00 0.00 0.00 22 1020.2
20260502205021 29 52 4.8 11.3 0.00 0.00 0.00 22 1020.3
20260502204016 28 201 4.8 14.5 0.00 0.00 0.00 25 1020.4
20260502203047 28 103 3.2 6.4 0.00 0.00 0.00 24 1020.4
20260502202022 29 182 3.2 9.7 0.00 0.00 0.00 25 1020.5
20260502201016 28 64 6.4 14.5 0.00 0.00 0.00 24 1020.6
20260502200027 28 13 3.2 6.4 0.00 0.00 0.00 25 1020.6
20260502195041 28 16 4.8 11.3 0.00 0.00 0.00 25 1020.8
20260502194017 28 252 4.8 12.9 0.00 0.00 0.00 26 1020.9
20260502193026 28 307 3.2 6.4 0.00 0.00 0.00 25 1020.9
20260502192022 28 260 4.8 12.9 0.00 0.00 0.00 26 1021.0
20260502191017 28 83 3.2 9.7 0.00 0.00 0.00 25 1021.1
20260502190027 28 246 3.2 12.9 0.00 0.00 0.00 25 1021.3
20260502185022 28 320 3.2 11.3 0.00 0.00 0.00 26 1021.4
20260502184017 28 283 4.8 14.5 0.00 0.00 0.00 27 1021.5
20260502183028 27 250 3.2 12.9 0.00 0.00 0.00 27 1021.6
20260502182043 27 78 4.8 12.9 0.00 0.00 0.00 27 1021.8
20260502181018 27 99 3.2 9.7 0.00 0.00 0.00 28 1021.9
20260502164020 26 53 3.2 9.7 0.00 0.00 0.00 34 1022.7
20260502163036 25 226 3.2 14.5 0.00 0.00 0.00 35 1022.7
20260502162046 25 11 3.2 6.4 0.00 0.00 0.00 35 1022.6
20260502161022 24 274 3.2 6.4 0.00 0.00 0.00 38 1022.6
20260502152028 22 268 6.4 11.3 0.00 0.00 0.00 46 1022.6
20260502151023 22 261 3.2 9.7 0.00 0.00 0.00 48 1022.5
20260502123022 10 240 0.0 1.6 0.00 0.00 0.00 93 1021.4
20260502122016 9 0.0 0.0 0.00 0.00 0.00 94 1021.3
20260502121026 9 240 0.0 1.6 0.00 0.00 0.00 94 1021.2
20260502115017 8 240 0.0 1.6 0.00 0.00 0.00 94 1020.6
20260502114027 8 239 0.0 1.6 0.00 0.00 0.00 94 1020.4
20260502113022 8 0.0 0.0 0.00 0.00 0.00 94 1020.2
20260502112017 8 0.0 0.0 0.00 0.00 0.00 94 1020.0
20260502111028 8 0.0 0.0 0.00 0.00 0.00 94 1020.0
20260502110022 8 0.0 0.0 0.00 0.00 0.00 93 1019.9
20260502105037 8 0.0 0.0 0.00 0.00 0.00 93 1020.0
20260502104027 8 0.0 0.0 0.00 0.00 0.00 92 1019.7
20260502103022 8 0.0 0.0 0.00 0.00 0.00 92 1019.7
20260502102037 8 239 0.0 1.6 0.00 0.00 0.00 93 1019.7
20260502101027 8 240 0.0 3.2 0.00 0.03 0.00 93 1019.9
20260502091028 8 233 0.0 1.6 0.00 0.03 0.00 91 1019.2
20260502071018 10 246 0.0 3.2 0.00 0.03 0.00 89 1019.4
20260502070031 10 244 0.0 1.6 0.00 0.03 0.00 88 1019.4
20260502065025 10 0.0 0.0 0.00 0.03 0.00 88 1019.4
20260502064027 10 0.0 0.0 0.00 0.03 0.00 87 1019.4
20260502063035 10 0.0 0.0 0.00 0.03 0.00 87 1019.5
20260502062037 10 0.0 0.0 0.00 0.03 0.00 84 1019.6
20260502061031 10 0.0 0.0 0.00 0.03 0.00 84 1019.7
20260502060040 11 244 0.0 1.6 0.00 0.03 0.00 85 1019.7
20260502055027 11 245 0.0 1.6 0.00 0.03 0.00 84 1019.8
20260502054035 11 269 1.6 3.2 0.00 0.03 0.00 84 1019.8
20260502053034 11 64 1.6 1.6 0.00 0.03 0.00 84 1019.6
20260502052526 11 0.0 0.0 0.00 0.03 0.00 81 1019.5
20260502051525 11 64 0.0 1.6 0.00 0.03 0.00 81 1019.5
20260502050558 11 64 0.0 1.6 0.00 0.03 0.00 81 1019.6
20260502045526 11 64 0.0 1.6 0.00 0.03 0.03 81 1019.5
20260502044521 11 64 0.0 1.6 0.00 0.03 0.03 81 1019.4
20260502043529 12 0.0 0.0 0.00 0.03 0.03 79 1019.4
20260502042523 12 0.0 0.0 0.00 0.03 0.03 77 1019.5
20260502041531 12 64 0.0 1.6 0.00 0.03 0.03 77 1019.4
20260502040529 12 0.0 0.0 0.00 0.03 0.03 75 1019.4
20260502035522 12 0.0 0.0 0.00 0.03 0.03 74 1019.4
20260502034611 13 64 0.0 1.6 0.00 0.03 0.03 72 1019.2
20260502033526 13 0.0 0.0 0.00 0.03 0.03 69 1019.1
20260502032523 13 0.0 0.0 0.00 0.03 0.03 69 1019.3
20260502031517 14 64 0.0 1.6 0.00 0.03 0.03 67 1019.2
20260502030526 14 68 1.6 3.2 0.00 0.03 0.03 66 1018.9
20260502025521 15 60 1.6 3.2 0.00 0.03 0.03 65 1018.9
20260502024516 15 79 1.6 3.2 0.00 0.03 0.03 65 1018.7